Voltar ao catálogo

THORAD DELTA 1 DEB

AtivoLEO
NORAD 14880·DEBRIS·🇺🇸 United States

Lançado Nov 15, 1974 de Vandenberg Space Force Base

Loading…

Próximas Passagens (próximas 24 horas)

TLE

AtualizadoSource: Space-Track

Época: Sep 14, 2026, 07:23 UTC

1 14880U 74089ET  26257.30783332 -.00000034  00000-0  42968-4 0  9991
2 14880 101.2236 183.1502 0152100 214.6497 298.9211 12.30550362 20360

Acompanhe THORAD DELTA 1 DEB em tempo real com AllMySat

Download on the App Store